Location: Izdebno
(52.6670°N, 16.2170°E)
Time: 06:42:32
(UTC+02:00)

Vanguard 1 - Pass Details

Date: 02 March 2024
Orbit: 653 x 3825 km, 34.2° (Epoch: 22 April)

Event Time Altitude Azimuth Distance (km) Brightness Sun altitude
Rises 00:26:40 0° 272° (W) 6,759 14.3 -44.3°
Reaches altitude 10° 00:32:09 10° 261° (W) 6,162 13.9 -44.2°
Enters shadow 00:35:14 15° 253° (WSW) 5,921 13.8 -44.1°
